Location: La Trinit�
(48.1620°N, 3.4512°W)
Time: 03:59:23
(UTC+00:00)

USA 245 - Pass Details

Date: 08 May 2021
Orbit: 265 x 982 km, 97.9° (Epoch: 08 June)

Event Time Altitude Azimuth Distance (km) Brightness Sun altitude
Exits shadow 20:25:55 - 98° (E) 1,150 4.4 -7.7°
Reaches altitude 10° 20:26:10 10° 93° (E) 1,095 4.4 -7.7°
Maximum altitude 20:27:09 12° 67° (ENE) 985 4.3 -7.8°
Drops below altitude 10° 20:28:08 10° 41° (NE) 1,083 4.8 -8.0°
Sets 20:30:38 0° 6° (N) 1,907 6.6 -8.3°
